IW3HBX-13 Weather Reports


Display with metric or nautical units.
time (UTC)temp
F
wind
direction
speed
MPH
gust
MPH
rain 1hr
in
rain 24hr
in
rain mn
in
humidity
%
barometer
mb
20260831185406 80 165 2.0 2.0 0.00 0.00 0.00 76 1013.4
20260831184808 80 147 2.0 5.0 0.00 0.00 0.00 75 1013.3
20260831184206 80 147 1.0 2.0 0.00 0.00 0.00 75 1013.2
20260831183608 80 149 3.0 5.0 0.00 0.00 0.00 75 1013.1
20260831183006 81 125 2.0 4.0 0.00 0.00 0.00 73 1013.0
20260831182406 81 146 1.0 4.0 0.00 0.00 0.00 72 1013.0
20260831181813 81 130 2.0 5.0 0.00 0.00 0.00 72 1012.9
20260831181210 81 99 2.0 2.0 0.00 0.00 0.00 72 1013.0
20260831180608 82 128 2.0 2.0 0.00 0.00 0.00 73 1013.0
20260831175408 82 140 2.0 2.0 0.00 0.00 0.00 72 1012.8
20260831174808 82 93 1.0 3.0 0.00 0.00 0.00 71 1012.8
20260831174207 83 84 1.0 2.0 0.00 0.00 0.00 72 1012.9
20260831173606 83 98 1.0 2.0 0.00 0.00 0.00 70 1012.9
20260831173010 83 112 2.0 3.0 0.00 0.00 0.00 69 1012.9
20260831172406 84 91 2.0 3.0 0.00 0.00 0.00 67 1012.8
20260831171814 84 107 1.0 3.0 0.00 0.00 0.00 66 1013.0
20260831171210 85 115 2.0 4.0 0.00 0.00 0.00 65 1013.1
20260831170608 85 132 2.0 4.0 0.00 0.00 0.00 64 1013.2
20260831165408 86 125 3.0 4.0 0.00 0.00 0.00 63 1013.1
20260831164806 85 113 3.0 4.0 0.00 0.00 0.00 61 1013.2
20260831164206 85 109 2.0 4.0 0.00 0.00 0.00 63 1013.2
20260831163609 86 118 2.0 4.0 0.00 0.00 0.00 60 1013.2
20260831163006 86 101 3.0 5.0 0.00 0.00 0.00 61 1013.3
20260831162407 86 85 1.0 3.0 0.00 0.00 0.00 60 1013.3
20260831161808 86 94 2.0 3.0 0.00 0.00 0.00 60 1013.4
20260831161207 86 72 3.0 4.0 0.00 0.00 0.00 59 1013.3
20260831160606 87 75 2.0 4.0 0.00 0.00 0.00 56 1013.4
20260831155409 86 123 3.0 5.0 0.00 0.00 0.00 56 1013.4
20260831154807 87 96 3.0 4.0 0.00 0.00 0.00 57 1013.5
20260831154207 86 113 3.0 5.0 0.00 0.00 0.00 57 1013.5
20260831153607 87 105 2.0 5.0 0.00 0.00 0.00 56 1013.5
20260831153007 87 80 3.0 4.0 0.00 0.00 0.00 56 1013.5
20260831152409 87 88 3.0 5.0 0.00 0.00 0.00 56 1013.4
20260831151810 88 130 3.0 4.0 0.00 0.00 0.00 54 1013.5
20260831151207 88 82 3.0 4.0 0.00 0.00 0.00 54 1013.5
20260831150607 89 127 2.0 4.0 0.00 0.00 0.00 52 1013.5
20260831145410 91 236 3.0 5.0 0.00 0.00 0.00 40 1013.6
20260831144807 91 173 2.0 3.0 0.00 0.00 0.00 40 1013.5
20260831144207 91 224 3.0 5.0 0.00 0.00 0.00 41 1013.5
20260831143607 91 221 2.0 4.0 0.00 0.00 0.00 40 1013.5
20260831143007 91 151 2.0 3.0 0.00 0.00 0.00 41 1013.6
20260831142408 90 233 2.0 5.0 0.00 0.00 0.00 42 1013.6
20260831141807 91 229 0.0 2.0 0.00 0.00 0.00 41 1013.6
20260831141207 90 235 3.0 5.0 0.00 0.00 0.00 41 1013.6
20260831140607 89 224 5.0 7.0 0.00 0.00 0.00 41 1013.6
20260831135407 90 221 4.0 7.0 0.00 0.00 0.00 41 1013.7
20260831134808 91 214 1.0 2.0 0.00 0.00 0.00 39 1013.7
20260831134208 90 233 1.0 3.0 0.00 0.00 0.00 41 1013.8
20260831133607 90 234 1.0 2.0 0.00 0.00 0.00 40 1013.8
20260831133007 90 269 2.0 3.0 0.00 0.00 0.00 41 1013.8
20260831132407 90 250 2.0 3.0 0.00 0.00 0.00 42 1013.9
20260831131810 91 164 1.0 2.0 0.00 0.00 0.00 41 1014.0
20260831131210 90 225 4.0 6.0 0.00 0.00 0.00 42 1014.0
20260831130607 90 283 1.0 2.0 0.00 0.00 0.00 42 1014.1
20260831125407 89 226 3.0 7.0 0.00 0.00 0.00 44 1014.3
20260831124807 89 214 3.0 6.0 0.00 0.00 0.00 44 1014.3
20260831124210 89 136 2.0 4.0 0.00 0.00 0.00 44 1014.4
20260831123608 89 225 1.0 3.0 0.00 0.00 0.00 43 1014.4
20260831123008 88 231 3.0 5.0 0.00 0.00 0.00 44 1014.4
20260831122409 89 81 1.0 2.0 0.00 0.00 0.00 45 1014.5
20260831121807 89 182 1.0 4.0 0.00 0.00 0.00 45 1014.5
20260831121209 88 238 2.0 5.0 0.00 0.00 0.00 44 1014.4
20260831120607 87 227 4.0 5.0 0.00 0.00 0.00 44 1014.5
20260831115410 87 269 3.0 4.0 0.00 0.00 0.00 44 1014.6
20260831114808 87 245 2.0 3.0 0.00 0.00 0.00 44 1014.6
20260831114210 87 238 5.0 8.0 0.00 0.00 0.00 44 1014.7
20260831113608 87 228 5.0 7.0 0.00 0.00 0.00 44 1014.7
20260831113007 87 151 2.0 2.0 0.00 0.00 0.00 49 1014.7
20260831112407 89 224 1.0 2.0 0.00 0.00 0.00 44 1014.8
20260831111807 88 220 1.0 2.0 0.00 0.00 0.00 44 1014.8
20260831111207 88 260 1.0 3.0 0.00 0.00 0.00 45 1014.9
20260831105407 87 219 1.0 2.0 0.00 0.00 0.00 46 1015.0
20260831104807 87 200 2.0 5.0 0.00 0.00 0.00 45 1014.9
20260831104210 88 173 2.0 4.0 0.00 0.00 0.00 45 1015.0
20260831103609 87 175 1.0 4.0 0.00 0.00 0.00 48 1015.1
20260831103007 88 136 2.0 4.0 0.00 0.00 0.00 46 1015.0
20260831102408 88 114 2.0 2.0 0.00 0.00 0.00 48 1015.1
20260831101808 87 147 2.0 4.0 0.00 0.00 0.00 48 1015.1
20260831101207 86 164 1.0 2.0 0.00 0.00 0.00 48 1015.1
20260831100607 84 300 2.0 2.0 0.00 0.00 0.00 48 1015.2
20260831095407 86 204 1.0 4.0 0.00 0.00 0.00 48 1015.3
20260831094807 84 119 2.0 3.0 0.00 0.00 0.00 48 1015.3
20260831094207 85 145 1.0 2.0 0.00 0.00 0.00 49 1015.4
20260831093607 85 188 1.0 2.0 0.00 0.00 0.00 48 1015.3
20260831093009 85 248 1.0 2.0 0.00 0.00 0.00 52 1015.4
20260831092407 84 106 1.0 2.0 0.00 0.00 0.00 50 1015.6
20260831091808 85 243 0.0 0.0 0.00 0.00 0.00 49 1015.6
20260831091240 84 243 0.0 2.0 0.00 0.00 0.00 50 1015.5
20260831091209 84 243 0.0 2.0 0.00 0.00 0.00 50 1015.5
20260831090607 84 230 0.0 1.0 0.00 0.00 0.00 52 1015.5
20260831085407 83 178 1.0 2.0 0.00 0.00 0.00 53 1015.5
20260831084807 85 126 0.0 0.0 0.00 0.00 0.00 52 1015.5
20260831084208 84 34 1.0 2.0 0.00 0.00 0.00 54 1015.6
20260831083607 84 360 0.0 1.0 0.00 0.00 0.00 56 1015.5
20260831083007 83 34 1.0 2.0 0.00 0.00 0.00 56 1015.5
20260831082409 83 40 1.0 2.0 0.00 0.00 0.00 57 1015.4
20260831081810 83 280 1.0 2.0 0.00 0.00 0.00 58 1015.3
20260831081210 82 336 2.0 2.0 0.00 0.00 0.00 58 1015.4
20260831080607 82 288 0.0 2.0 0.00 0.00 0.00 58 1015.3
20260831075408 81 322 2.0 4.0 0.00 0.00 0.00 59 1015.2
20260831074807 81 58 1.0 2.0 0.00 0.00 0.00 58 1015.2
20260831074207 81 45 2.0 3.0 0.00 0.00 0.00 60 1015.1
20260831073608 81 41 0.0 1.0 0.00 0.00 0.00 57 1015.1
20260831073007 80 59 1.0 2.0 0.00 0.00 0.00 61 1015.1
20260831072407 81 65 0.0 2.0 0.00 0.00 0.00 59 1015.1
20260831071807 81 66 0.0 2.0 0.00 0.00 0.00 59 1015.1
20260831071207 80 66 0.0 1.0 0.00 0.00 0.00 60 1015.1
20260831070608 78 57 0.0 1.0 0.00 0.00 0.00 64 1015.0
20260831065407 77 67 2.0 3.0 0.00 0.00 0.00 64 1015.0
20260831064807 78 65 2.0 2.0 0.00 0.00 0.00 64 1014.9
20260831064207 77 63 1.0 3.0 0.00 0.00 0.00 65 1014.9
20260831063610 78 55 0.0 1.0 0.00 0.00 0.00 60 1015.0
20260831063007 78 337 0.0 0.0 0.00 0.00 0.00 61 1015.0
20260831062407 78 337 0.0 0.0 0.00 0.00 0.00 61 1015.0
20260831061810 77 301 0.0 0.0 0.00 0.00 0.00 70 1015.0
20260831061209 77 301 0.0 0.0 0.00 0.00 0.00 71 1015.0
20260831060610 77 301 0.0 0.0 0.00 0.00 0.00 71 1014.9
20260831055406 76 301 0.0 0.0 0.00 0.00 0.00 73 1014.8
20260831054806 74 301 0.0 0.0 0.00 0.00 0.00 76 1014.8
20260831054206 74 301 0.0 0.0 0.00 0.00 0.00 80 1014.8
20260831053608 74 301 0.0 0.0 0.00 0.00 0.00 78 1014.7
20260831053006 73 301 0.0 0.0 0.00 0.00 0.00 82 1014.6
20260831052408 72 301 0.0 0.0 0.00 0.00 0.00 85 1014.5
20260831051806 72 301 0.0 0.0 0.00 0.00 0.00 86 1014.6
20260831051209 71 301 0.0 0.0 0.00 0.00 0.00 87 1014.6
20260831050608 70 301 0.0 0.0 0.00 0.00 0.00 88 1014.5
20260831045406 69 301 0.0 0.0 0.00 0.00 0.00 92 1014.5
20260831044809 69 301 0.0 0.0 0.00 0.00 0.00 92 1014.3
20260831044206 69 301 0.0 0.0 0.00 0.00 0.00 92 1014.5
20260831043608 69 301 0.0 0.0 0.00 0.00 0.00 92 1014.4
20260831043008 69 301 0.0 0.0 0.00 0.00 0.00 92 1014.4
20260831042406 69 295 0.0 0.0 0.00 0.00 0.00 92 1014.3
20260831041806 69 295 0.0 0.0 0.00 0.00 0.00 92 1014.3
20260831041207 69 295 0.0 0.0 0.00 0.00 0.00 92 1014.3
20260831040608 69 295 0.0 0.0 0.00 0.00 0.00 92 1014.3
20260831035406 69 295 0.0 0.0 0.00 0.00 0.00 91 1014.4
20260831034807 69 295 0.0 0.0 0.00 0.00 0.00 92 1014.5
20260831034209 69 295 0.0 0.0 0.00 0.00 0.00 92 1014.5
20260831033609 69 295 0.0 0.0 0.00 0.00 0.00 92 1014.6
20260831033006 69 295 0.0 0.0 0.00 0.00 0.00 92 1014.6
20260831032409 69 295 0.0 0.0 0.00 0.00 0.00 92 1014.6
20260831031807 69 295 0.0 0.0 0.00 0.00 0.00 92 1014.7
20260831031207 69 295 0.0 0.0 0.00 0.00 0.00 92 1014.7
20260831030606 69 295 0.0 0.0 0.00 0.00 0.00 94 1014.8
20260831025410 69 295 0.0 0.0 0.00 0.00 0.00 94 1014.8
20260831024806 69 295 0.0 0.0 0.00 0.00 0.00 94 1014.7
20260831024209 69 295 0.0 0.0 0.00 0.00 0.00 94 1014.8
20260831023607 69 295 0.0 0.0 0.00 0.00 0.00 94 1014.7
20260831023007 70 295 0.0 0.0 0.00 0.00 0.00 92 1014.7
20260831022406 70 295 0.0 0.0 0.00 0.00 0.00 92 1014.6
20260831021807 70 295 1.0 2.0 0.00 0.00 0.00 92 1014.6
20260831021209 70 295 0.0 0.0 0.00 0.00 0.00 92 1014.7
20260831020606 70 295 0.0 0.0 0.00 0.00 0.00 92 1014.7
20260831015408 70 295 0.0 0.0 0.00 0.00 0.00 92 1014.7
20260831014806 70 295 0.0 0.0 0.00 0.00 0.00 92 1014.7
20260831014206 70 295 0.0 0.0 0.00 0.00 0.00 94 1014.7
20260831013641 70 295 0.0 0.0 0.00 0.00 0.00 95 1014.8
20260831013609 70 295 0.0 0.0 0.00 0.00 0.00 95 1014.8
20260831013010 70 295 0.0 0.0 0.00 0.00 0.00 94 1014.9
20260831012407 70 295 0.0 0.0 0.00 0.00 0.00 95 1014.9
20260831011806 70 295 0.0 0.0 0.00 0.00 0.00 95 1014.8
20260831011206 70 295 0.0 0.0 0.00 0.00 0.00 95 1014.8
20260831010741 71 295 0.0 0.0 0.00 0.00 0.00 95 1014.7
20260831010606 71 295 0.0 0.0 0.00 0.00 0.00 95 1014.7
20260831005408 71 295 0.0 0.0 0.00 0.00 0.00 95 1014.9
20260831004807 71 295 0.0 0.0 0.00 0.00 0.00 95 1014.8
20260831004207 71 295 0.0 0.0 0.00 0.00 0.00 95 1014.8
20260831003610 71 295 0.0 0.0 0.00 0.00 0.00 94 1014.8
20260831003007 71 295 0.0 0.0 0.00 0.00 0.00 94 1014.9
20260831002407 71 295 0.0 0.0 0.00 0.00 0.00 94 1014.8
20260831001807 71 295 0.0 0.0 0.00 0.00 0.00 94 1014.8
20260831001207 71 295 0.0 0.0 0.00 0.00 0.00 94 1014.9
20260831000607 71 295 0.0 0.0 0.00 0.00 0.00 94 1014.9
20260830235409 71 295 0.0 0.0 0.00 0.00 0.00 94 1014.9
20260830234807 71 295 0.0 0.0 0.00 0.00 0.00 94 1014.9
20260830234207 71 295 0.0 0.0 0.00 0.00 0.00 92 1014.9
20260830233607 72 295 0.0 0.0 0.00 0.00 0.00 92 1014.9
20260830233007 73 295 0.0 0.0 0.00 0.00 0.00 91 1014.9
20260830232407 73 295 0.0 0.0 0.00 0.00 0.00 91 1014.9
20260830231807 73 295 0.0 0.0 0.00 0.00 0.00 90 1015.0
20260830231207 73 295 0.0 0.0 0.00 0.00 0.00 88 1015.0
20260830230607 73 295 0.0 0.0 0.00 0.00 0.00 90 1015.0
20260830225407 73 295 0.0 0.0 0.00 0.00 0.00 90 1015.0
20260830224807 73 295 0.0 0.0 0.00 0.00 0.00 90 1015.0
20260830224207 73 295 0.0 0.0 0.00 0.00 0.00 90 1015.1
20260830223607 74 295 0.0 0.0 0.00 0.00 0.00 86 1015.1
20260830223008 74 295 0.0 0.0 0.00 0.00 0.00 86 1015.2
20260830222407 73 295 0.0 0.0 0.00 0.00 0.00 90 1015.1
20260830221807 73 295 0.0 0.0 0.00 0.00 0.00 90 1015.1
20260830221208 73 295 0.0 0.0 0.00 0.00 0.00 90 1015.1
20260830220607 74 295 0.0 0.0 0.00 0.00 0.00 88 1015.1
20260830215409 74 295 0.0 0.0 0.00 0.00 0.00 88 1015.1
20260830214807 75 295 0.0 0.0 0.00 0.00 0.00 87 1015.1
20260830214207 75 295 0.0 0.0 0.00 0.00 0.00 86 1015.1
20260830213607 75 295 0.0 0.0 0.00 0.00 0.00 86 1015.1
20260830213007 75 295 0.0 1.0 0.00 0.00 0.00 86 1015.0
20260830212407 75 295 1.0 2.0 0.00 0.00 0.00 85 1015.0
20260830211807 75 295 2.0 2.0 0.00 0.00 0.00 86 1015.0
20260830211207 76 167 0.0 0.0 0.00 0.00 0.00 83 1014.9
20260830210609 77 167 0.0 0.0 0.00 0.00 0.00 82 1014.9
20260830205407 77 167 0.0 0.0 0.00 0.00 0.00 81 1014.7
20260830204807 77 167 0.0 0.0 0.00 0.00 0.00 80 1014.8
20260830204207 77 167 0.0 0.0 0.00 0.00 0.00 80 1014.8
20260830203608 77 167 0.0 0.0 0.00 0.00 0.00 80 1014.7
20260830203007 76 189 0.0 0.0 0.00 0.00 0.00 80 1014.7
20260830202408 77 189 0.0 0.0 0.00 0.00 0.00 81 1014.8
20260830201807 77 189 0.0 0.0 0.00 0.00 0.00 78 1014.8
20260830201207 77 189 0.0 0.0 0.00 0.00 0.00 78 1014.8
20260830200607 77 189 0.0 0.0 0.00 0.00 0.00 78 1014.8
20260830195409 77 189 0.0 0.0 0.00 0.00 0.00 78 1014.7
20260830194806 77 189 0.0 0.0 0.00 0.00 0.00 80 1014.8
20260830194206 77 189 0.0 0.0 0.00 0.00 0.00 78 1014.7
20260830193609 78 189 0.0 0.0 0.00 0.00 0.00 77 1014.6
20260830193007 78 189 0.0 0.0 0.00 0.00 0.00 76 1014.6
20260830192409 78 189 0.0 0.0 0.00 0.00 0.00 76 1014.6
20260830191807 78 189 0.0 0.0 0.00 0.00 0.00 75 1014.6
20260830191207 78 189 0.0 0.0 0.00 0.00 0.00 78 1014.5
20260830190607 79 189 0.0 0.0 0.00 0.00 0.00 71 1014.5